Date String (YYYY-MM-DD hh:mm:ss) UTC,Instrument flags,Ambient pressure (hPa),Sample flow (lpm),Bypass flow (lpm),Sample temperature (°C),Ambient temperature (°C),ASC tube jacket temperature (°C),LED temperature (°C),Box temperature (°C),Sample RH (%),Span deviation,Mass concentration (μg/m³),Mass concentration (μg/m³),Mass concentration (μg/m³)
DateTimeUTC,F1_M11,P_M11,Q1_M11,Q2_M11,T1_M11,T2_M11,T3_M11,T4_M11,T5_M11,U1_M11,ZSPAN_M11,X0_M11,X2_M11,X1_M11
2023-04-14 12:00:00,,0820.1,4.98,0.00,24.9,22.7,00.0,33.5,26.3,17.4,0000.0,0010.93,0003.84,0002.35
2023-04-14 12:01:00,,0820.1,5.00,0.00,24.8,22.8,00.0,33.4,26.3,17.3,0000.0,0010.44,0003.90,0002.36
2023-04-14 12:02:00,,0820.4,5.01,0.00,24.8,22.8,00.0,33.4,26.3,17.3,0000.0,0010.44,0003.87,0002.35
2023-04-14 12:03:00,,0820.1,5.01,0.00,24.8,22.7,00.0,33.4,26.2,17.2,0000.0,0010.51,0003.87,0002.34
2023-04-14 12:04:00,,0820.4,5.00,0.00,24.8,22.7,00.0,33.4,26.1,17.2,0000.0,0010.30,0003.89,0002.33
2023-04-14 12:05:00,,0820.5,5.00,0.00,24.7,22.7,00.0,33.3,26.1,17.2,0000.0,0010.49,0003.92,0002.34
2023-04-14 12:06:00,,0820.3,5.01,0.00,24.7,22.6,00.0,33.3,26.1,17.3,0000.0,0010.77,0003.90,0002.34
2023-04-14 12:07:00,,0820.3,4.99,0.00,24.7,22.6,00.0,33.3,26.1,17.3,0000.0,0010.78,0003.92,0002.35
2023-04-14 12:08:00,,0820.2,5.00,0.00,24.7,22.7,00.0,33.3,26.1,17.3,0000.0,0011.01,0003.95,0002.36
2023-04-14 12:09:00,,0820.3,5.00,0.00,24.7,22.7,00.0,33.3,26.1,17.3,0000.0,0010.92,0003.95,0002.37
2023-04-14 12:10:00,,0820.1,5.01,0.00,24.7,22.7,00.0,33.2,26.1,17.3,0000.0,0010.30,0003.91,0002.37
2023-04-14 12:11:00,,0820.1,5.01,0.00,24.6,22.7,00.0,33.2,26.1,17.3,0000.0,0009.82,0003.90,0002.37
2023-04-14 12:12:00,,0820.3,4.98,0.00,24.6,22.6,00.0,33.2,26.1,17.3,0000.0,0009.63,0003.87,0002.35
2023-04-14 12:13:00,,0820.3,5.00,0.00,24.6,22.6,00.0,33.2,26.0,17.3,0000.0,0009.39,0003.85,0002.36
2023-04-14 12:14:00,,0820.3,5.00,0.00,24.6,22.6,00.0,33.2,26.1,17.4,0000.0,0010.51,0003.87,0002.37
2023-04-14 12:15:00,,0820.3,5.00,0.00,24.6,22.6,00.0,33.1,26.0,17.4,0000.0,0011.33,0003.87,0002.39
2023-04-14 12:16:00,,0820.2,5.00,0.00,24.6,22.6,00.0,33.1,26.0,17.4,0000.0,0011.86,0003.85,0002.39
2023-04-14 12:17:00,,0820.2,4.99,0.00,24.6,22.6,00.0,33.1,26.0,17.4,0000.0,0011.31,0003.84,0002.39
2023-04-14 12:18:00,,0820.2,5.01,0.00,24.5,22.6,00.0,33.1,26.0,17.5,0000.0,0011.35,0003.83,0002.38
2023-04-14 12:19:00,,0820.2,5.01,0.00,24.5,22.6,00.0,33.1,25.9,17.5,0000.0,0011.35,0003.76,0002.37
2023-04-14 12:20:00,,0820.2,4.99,0.00,24.5,22.6,00.0,33.1,25.9,17.5,0000.0,0011.64,0003.74,0002.38
2023-04-14 12:21:00,,0820.2,5.00,0.00,24.5,22.6,00.0,33.0,25.9,17.5,0000.0,0011.92,0003.77,0002.39
2023-04-14 12:22:00,,0820.2,5.00,0.00,24.5,22.6,00.0,33.0,25.9,17.5,0000.0,0012.57,0003.79,0002.39
2023-04-14 12:23:00,,0820.3,5.00,0.00,24.5,22.5,00.0,33.0,26.0,17.5,0000.0,0012.68,0003.84,0002.41
2023-04-14 12:24:00,,0820.3,5.00,0.00,24.5,22.5,00.0,33.0,25.9,17.6,0000.0,0012.71,0003.84,0002.43
2023-04-14 12:25:00,,0820.3,5.00,0.00,24.5,22.6,00.0,33.0,26.0,17.6,0000.0,0012.07,0003.81,0002.43
2023-04-14 12:26:00,,0820.3,4.99,0.00,24.5,22.6,00.0,33.0,26.0,17.6,0000.0,0010.83,0003.81,0002.42
2023-04-14 12:27:00,,0820.3,4.99,0.00,24.5,22.6,00.0,33.0,26.0,17.6,0000.0,0010.39,0003.79,0002.41
2023-04-14 12:28:00,,0820.3,5.00,0.00,24.5,22.6,00.0,33.0,25.9,17.5,0000.0,0009.92,0003.79,0002.39
2023-04-14 12:29:00,,0820.4,5.00,0.00,24.5,22.7,00.0,32.9,25.9,17.5,0000.0,0010.30,0003.83,0002.40
2023-04-14 12:30:00,,0820.4,4.99,0.00,24.5,22.7,00.0,32.9,26.0,17.5,0000.0,0010.57,0003.90,0002.42
2023-04-14 12:31:00,,0820.4,5.00,0.00,24.5,22.6,00.0,32.9,26.0,17.5,0000.0,0009.92,0003.90,0002.42
2023-04-14 12:32:00,,0820.4,5.00,0.00,24.4,22.7,00.0,32.9,26.0,17.7,0000.0,0009.73,0003.89,0002.43
2023-04-14 12:33:00,,0820.7,5.00,0.00,24.4,22.6,00.0,32.9,26.0,17.9,0000.0,0008.95,0003.90,0002.44
2023-04-14 12:34:00,,0820.7,5.00,0.00,24.4,22.5,00.0,32.9,25.9,18.0,0000.0,0009.02,0003.88,0002.45
2023-04-14 12:35:00,,0820.9,4.99,0.00,24.4,22.5,00.0,32.9,25.8,18.2,0000.0,0009.33,0003.89,0002.43
2023-04-14 12:36:00,,0820.8,5.00,0.00,24.4,22.5,00.0,32.9,25.9,18.2,0000.0,0009.43,0003.90,0002.45
2023-04-14 12:37:00,,0820.8,5.01,0.00,24.4,22.5,00.0,32.9,25.9,18.4,0000.0,0009.33,0003.91,0002.49
2023-04-14 12:38:00,,0820.7,5.01,0.00,24.4,22.6,00.0,32.9,25.9,18.5,0000.0,0009.85,0003.96,0002.53
2023-04-14 12:39:00,,0820.8,4.99,0.00,24.4,22.6,00.0,32.9,25.9,18.6,0000.0,0010.16,0003.99,0002.58
2023-04-14 12:40:00,,0820.6,5.01,0.00,24.4,22.6,00.0,32.8,25.9,18.8,0000.0,0009.84,0003.99,0002.63
2023-04-14 12:41:00,,0820.6,5.00,0.00,24.4,22.6,00.0,32.8,25.9,18.8,0000.0,0009.68,0004.00,0002.65
2023-04-14 12:42:00,,0820.6,5.00,0.00,24.4,22.6,00.0,32.8,25.9,18.9,0000.0,0009.84,0004.04,0002.71
2023-04-14 12:43:00,,0820.7,4.99,0.00,24.4,22.6,00.0,32.8,25.9,19.0,0000.0,0010.00,0004.08,0002.73
2023-04-14 12:44:00,,0820.7,4.99,0.00,24.4,22.6,00.0,32.8,25.9,19.1,0000.0,0009.98,0004.09,0002.76
2023-04-14 12:45:00,,0820.8,5.00,0.00,24.4,22.6,00.0,32.8,25.9,19.2,0000.0,0009.87,0004.06,0002.78
2023-04-14 12:46:00,,0820.8,5.00,0.00,24.4,22.6,00.0,32.8,25.9,19.2,0000.0,0009.52,0004.08,0002.82
2023-04-14 12:47:00,,0820.8,5.00,0.00,24.4,22.6,00.0,32.8,25.9,19.2,0000.0,0010.13,0004.16,0002.86
2023-04-14 12:48:00,,0820.8,4.99,0.00,24.4,22.6,00.0,32.8,25.9,19.2,0000.0,0010.08,0004.18,0002.90
2023-04-14 12:49:00,,0820.8,4.99,0.00,24.3,22.6,00.0,32.8,25.7,19.3,0000.0,0009.81,0004.20,0002.92
2023-04-14 12:50:00,,0820.8,5.01,0.00,24.3,22.5,00.0,32.8,25.7,19.4,0000.0,0009.62,0004.26,0002.93
2023-04-14 12:51:00,,0820.8,5.00,0.00,24.3,22.5,00.0,32.8,25.7,19.4,0000.0,0010.34,0004.27,0002.95
2023-04-14 12:52:00,,0820.8,4.98,0.00,24.3,22.5,00.0,32.8,25.8,19.4,0000.0,0010.68,0004.27,0002.97
2023-04-14 12:53:00,,0820.9,5.01,0.00,24.3,22.5,00.0,32.8,25.8,19.4,0000.0,0010.97,0004.30,0002.98
2023-04-14 12:54:00,,0820.8,5.01,0.00,24.3,22.5,00.0,32.8,25.9,19.4,0000.0,0011.49,0004.31,0002.98
2023-04-14 12:55:00,,0820.8,5.01,0.00,24.3,22.5,00.0,32.8,25.9,19.4,0000.0,0011.95,0004.31,0003.00
2023-04-14 12:56:00,,0820.8,4.98,0.00,24.3,22.6,00.0,32.8,25.9,19.5,0000.0,0012.21,0004.34,0003.01
2023-04-14 12:57:00,,0820.9,5.00,0.00,24.3,22.6,00.0,32.7,25.9,19.4,0000.0,0012.79,0004.35,0003.01
2023-04-14 12:58:00,,0820.9,5.01,0.00,24.3,22.6,00.0,32.7,25.8,19.4,0000.0,0012.47,0004.35,0003.03
2023-04-14 12:59:00,,0820.9,4.99,0.00,24.3,22.6,00.0,32.7,25.9,19.5,0000.0,0013.32,0004.29,0003.01
